Location: Gorzów Śląski
(51.0283°N, 18.4229°E)
Time: 01:46:43
(UTC+01:00)

ISS - Visible Passes

Search period start: 23 January 2019 00:00
Search period end: 02 February 2019 00:00
Orbit: 404 x 411 km, 51.6° (Epoch: 23 January)

Date Brightness Start Highest point End Pass type
(mag) Time Alt. Az. Time Alt. Az. Time Alt. Az.
23 Jan -1.6 18:39:48 10° SSW 18:41:04 18° S 18:41:04 18° S visible
24 Jan -1.9 17:49:15 10° S 17:51:24 16° SE 17:52:03 16° SE visible
24 Jan -0.8 19:24:12 10° WSW 19:24:46 14° WSW 19:24:46 14° WSW visible
25 Jan -2.9 18:33:01 10° SW 18:35:40 39° S 18:35:40 39° S visible
26 Jan -2.6 17:42:00 10° SSW 17:44:55 29° SSE 17:46:30 19° ESE visible
26 Jan -1.3 19:17:55 10° WSW 19:19:13 22° WSW 19:19:13 22° WSW visible
27 Jan -3.9 18:26:33 10° WSW 18:29:51 69° SSE 18:30:00 67° SE visible
28 Jan -3.3 17:35:17 10° SW 17:38:30 50° SSE 17:40:44 18° E visible
28 Jan -1.8 19:11:40 10° W 19:13:26 29° W 19:13:26 29° W visible
29 Jan -3.9 18:20:14 10° W 18:23:32 87° NNW 18:24:08 57° ENE visible
29 Jan -0.1 19:56:49 10° W 19:56:50 10° W 19:56:50 10° W visible
30 Jan -3.8 17:28:49 10° WSW 17:32:07 78° SSE 17:34:49 15° E visible
30 Jan -2.3 19:05:23 10° W 19:07:31 37° WNW 19:07:31 37° WNW visible
31 Jan -3.9 18:13:55 10° W 18:17:14 78° N 18:18:11 43° ENE visible
31 Jan -0.4 19:50:30 10° W 19:50:54 13° W 19:50:54 13° W visible
01 Feb -3.8 17:22:27 10° W 17:25:45 83° N 17:28:51 12° E visible
01 Feb -2.9 18:59:03 10° W 19:01:34 49° W 19:01:34 49° W visible
